[[{"header":{"parameterUnit":"m.s-1","parameterCategory":1,"la1":30.2991,"la2":30.254,"lo1":-89.0895,"lo2":-89.0444,"dy":0.0017,"dx":0.0017,"nx":28,"ny":28,"refTime":"2025-03-09T09:00:00:Z","depth":0,"parameterNumber":2,"parameterNumberName":"U-component_of_WINDS"},"data":[0,0,0,0,0,0,0,0,0,0,0,0,0,0,0,0,0,0,0,0,0,0,0,0,0,0,0,0,0,0,0,0,0,0,0,0,0,0,0,0,0,0,0,0,0,0,0,0,0,0,0,0,0,0,0,0,0,0,-0.8376,-0.8377,0,-0.8477,-0.8478,-0.8479,-0.8523,-0.8523,-0.8523,-0.8523,-0.8629,-0.8631,-0.8634,0,0,0,0,0,0,0,0,0,0,0,0,0,-0.8224,-0.8226,-0.8376,-0.8377,-0.8379,-0.8477,-0.8478,-0.848,-0.8523,-0.8523,-0.8523,-0.8523,-0.8628,-0.8631,-0.8635,0,0,0,0,0,0,0,0,0,0,0,0,0,-0.8304,-0.8227,-0.8376,-0.8412,-0.8416,-0.8477,-0.8478,-0.848,-0.8523,-0.8523,-0.8523,-0.8523,-0.8626,-0.8631,-0.8635,-0.8667,0,0,-0.8649,-0.8651,0,0,0,0,0,0,0,0,-0.8299,-0.831,-0.8406,-0.841,-0.8415,-0.8487,-0.8463,-0.8543,-0.8523,-0.8483,-0.8523,-0.8523,-0.8582,-0.859,-0.861,-0.8672,-0.8677,-0.8649,-0.8652,-0.8654,-0.8655,0,0,0,0,0,0,0,-0.8294,-0.8305,-0.8416,-0.8407,-0.8413,-0.8424,-0.8435,-0.8479,-0.8533,-0.8486,-0.849,-0.8501,-0.8584,-0.8605,-0.8612,-0.8678,-0.8649,-0.8653,-0.8656,-0.8657,-0.8774,-0.8775,0,0,0,0,0,0,-0.8282,-0.83,-0.8413,-0.8419,-0.8355,-0.8427,-0.844,-0.8464,-0.8532,-0.8542,-0.8501,-0.8503,-0.8598,-0.8607,-0.8616,-0.866,-0.8654,-0.8658,-0.866,-0.8774,-0.8774,-0.8775,0,0,0,0,0,0,-0.8278,-0.8291,-0.8409,-0.8361,-0.8377,-0.843,-0.8457,-0.8466,-0.8487,-0.8543,-0.8553,-0.8512,-0.8598,-0.861,-0.8654,-0.8664,-0.866,-0.8664,-0.8773,-0.8774,-0.8775,-0.8745,0,0,0,0,0,0,-0.8274,-0.829,-0.8302,-0.8361,-0.8379,-0.8444,-0.8458,-0.8469,-0.8494,-0.8497,-0.8556,-0.8566,-0.8599,-0.8648,-0.8659,-0.867,-0.8667,-0.8773,-0.8774,-0.8774,-0.8746,-0.8745,-0.8744,0,0,0,0,0,-0.8268,-0.829,-0.8302,-0.8316,-0.8395,-0.8445,-0.8455,-0.8492,-0.8495,-0.8508,-0.8544,-0.8564,-0.8661,-0.8652,-0.8665,-0.8677,-0.8772,-0.8773,-0.8774,-0.8746,-0.8745,-0.8744,0,0,0,0,0,0,-0.8232,-0.8298,-0.8313,-0.8354,-0.8393,-0.8452,-0.847,-0.8489,-0.8529,-0.853,-0.8575,-0.8588,-0.8628,-0.8657,-0.8646,-0.8713,-0.8718,-0.8722,-0.8692,-0.8692,-0.8691,-0.8684,-0.8671,0,0,0,0,0,-0.8228,-0.8262,-0.8319,-0.835,-0.8369,-0.8416,-0.8439,-0.8463,-0.8506,-0.8523,-0.8563,-0.8604,-0.8644,-0.867,-0.8709,-0.875,-0.8764,-0.8765,-0.8764,-0.8763,-0.8766,-0.8791,-0.8793,-0.8778,-0.8778,-0.8778,0,0,-0.8221,-0.8262,-0.8281,-0.8343,-0.8377,-0.8412,-0.8429,-0.8466,-0.8493,-0.8529,-0.8574,-0.8604,-0.8653,-0.8696,-0.8717,-0.8722,-0.8773,-0.8765,-0.8763,-0.8767,-0.8793,-0.8794,-0.8795,-0.8779,-0.8779,-0.8779,0,0,-0.8228,-0.8261,-0.8291,-0.8324,-0.8375,-0.8406,-0.8413,-0.8469,-0.8491,-0.8536,-0.8564,-0.8597,-0.8665,-0.8699,-0.8725,-0.8745,-0.8766,-0.8757,-0.8754,-0.8778,-0.8779,-0.878,-0.8788,-0.8791,-0.876,-0.876,-0.876,0,-0.8213,-0.8267,-0.8304,-0.8339,-0.8366,-0.84,-0.8432,-0.8462,-0.8523,-0.8542,-0.8545,-0.8631,-0.8667,-0.8719,-0.8724,-0.8744,-0.8755,-0.8751,-0.8775,-0.8777,-0.8779,-0.8787,-0.879,-0.8758,-0.8759,-0.8759,-0.8759,0,-0.8247,-0.8284,-0.8302,-0.836,-0.8389,-0.8422,-0.8465,-0.8491,-0.8513,-0.8544,-0.859,-0.8634,-0.8684,-0.8698,-0.872,-0.8754,-0.8755,-0.8767,-0.8773,-0.8778,-0.8787,-0.8791,-0.8757,-0.8757,-0.8757,-0.8758,0,0,-0.8233,-0.8311,-0.8317,-0.8344,-0.8403,-0.8432,-0.8467,-0.8515,-0.8537,-0.8578,-0.8609,-0.8666,-0.8677,-0.8707,-0.8733,-0.8754,-0.8769,-0.8763,-0.8765,-0.8764,-0.881,-0.8802,-0.8805,-0.8782,-0.8783,-0.8784,-0.8806,0,-0.8248,-0.8311,-0.8346,-0.8396,-0.8431,-0.8464,-0.8495,-0.8535,-0.8565,-0.86,-0.8634,-0.8674,-0.8684,-0.8703,-0.8725,-0.8762,-0.8779,-0.8761,-0.8813,-0.8815,-0.8801,-0.8809,-0.8801,-0.882,-0.881,-0.8811,-0.8811,0,-0.8273,-0.8314,-0.8366,-0.8421,-0.8438,-0.8464,-0.8512,-0.8545,-0.8591,-0.8612,-0.8645,-0.8672,-0.8711,-0.8714,-0.877,-0.8757,-0.8781,-0.8803,-0.8804,-0.8811,-0.8814,-0.8818,-0.8827,-0.883,-0.8817,-0.8816,-0.8816,0,-0.8259,-0.8326,-0.8367,-0.8389,-0.8454,-0.8472,-0.85,-0.8546,-0.8573,-0.8615,-0.8634,-0.868,-0.8705,-0.8741,-0.8779,-0.8778,-0.8832,-0.8838,-0.8852,-0.8851,-0.8862,-0.8861,-0.8877,-0.8876,-0.8876,-0.8876,-0.8876,0,-0.8272,-0.8303,-0.8361,-0.8386,-0.8422,-0.8463,-0.8498,-0.8529,-0.857,-0.8603,-0.8634,-0.8664,-0.8713,-0.875,-0.878,-0.8823,-0.8834,-0.8853,-0.8861,-0.8851,-0.8848,-0.8867,-0.8867,-0.8876,-0.8876,-0.8876,-0.8876,0,-0.8262,-0.8302,-0.8348,-0.8406,-0.8422,-0.8446,-0.8497,-0.8523,-0.8555,-0.8596,-0.8608,-0.8658,-0.8703,-0.8745,-0.8805,-0.8826,-0.8869,-0.8879,-0.8853,-0.8857,-0.8869,-0.8868,-0.8898,-0.8905,-0.8898,-0.8898,-0.8898,0,-0.8268,-0.8293,-0.8354,-0.8377,-0.8405,-0.8443,-0.8471,-0.8512,-0.854,-0.8595,-0.8615,-0.8662,-0.8702,-0.8772,-0.8815,-0.8861,-0.8873,-0.888,-0.888,-0.887,-0.8875,-0.8873,-0.8876,-0.888,-0.888,-0.888,-0.8879,0,-0.8275,-0.8294,-0.8332,-0.8378,-0.841,-0.8448,-0.8488,-0.8506,-0.8555,-0.8585,-0.8631,-0.8661,-0.8723,-0.877,-0.8821,-0.8852,-0.8874,-0.8879,-0.8885,-0.8875,-0.886,-0.887,-0.8852,-0.8878,-0.8879,-0.8879,-0.8879,-0.8879,-0.8274,-0.8298,-0.8345,-0.8387,-0.8421,-0.8457,-0.8485,-0.8521,-0.8559,-0.8612,-0.8635,-0.8681,-0.8729,-0.88,-0.883,-0.8868,-0.8874,-0.8882,-0.8884,-0.8885,-0.8884,-0.8853,-0.8878,-0.8878,-0.8878,-0.8878,-0.8878,0,-0.8284,-0.8316,-0.8354,-0.8408,-0.8442,-0.8459,-0.8504,-0.8531,-0.8572,-0.8614,-0.8652,-0.8706,-0.8752,-0.8798,-0.8847,-0.8869,-0.8881,-0.888,-0.888,-0.8887,-0.8876,-0.8867,-0.887,-0.887,-0.887,-0.887,-0.887,-0.887,-0.8293,-0.8335,-0.8359,-0.8419,-0.8451,-0.8497,-0.8521,-0.8555,-0.8589,-0.8647,-0.8685,-0.8715,-0.8759,-0.8811,-0.8855,-0.8868,-0.8885,-0.8882,-0.8897,-0.8887,-0.8887,-0.8887,-0.8879,-0.8885,-0.8885,-0.8905,-0.8905,-0.8905]},{"header":{"parameterUnit":"m.s-1","parameterCategory":1,"la1":30.2991,"la2":30.254,"lo1":-89.0895,"lo2":-89.0444,"dy":0.0017,"dx":0.0017,"nx":28,"ny":28,"refTime":"2025-03-09T09:00:00:Z","depth":0,"parameterNumber":3,"parameterNumberName":"V-component_of_WINDS"},"data":[0,0,0,0,0,0,0,0,0,0,0,0,0,0,0,0,0,0,0,0,0,0,0,0,0,0,0,0,0,0,0,0,0,0,0,0,0,0,0,0,0,0,0,0,0,0,0,0,0,0,0,0,0,0,0,0,0,0,-3.3369,-3.3369,0,-3.3421,-3.3421,-3.3422,-3.3429,-3.3429,-3.3428,-3.3428,-3.3475,-3.3477,-3.3478,0,0,0,0,0,0,0,0,0,0,0,0,0,-3.327,-3.3272,-3.3369,-3.3369,-3.337,-3.3421,-3.3421,-3.3422,-3.3429,-3.3429,-3.3428,-3.3427,-3.3475,-3.3477,-3.3479,0,0,0,0,0,0,0,0,0,0,0,0,0,-3.3317,-3.3273,-3.3369,-3.338,-3.3381,-3.3421,-3.3421,-3.3422,-3.3429,-3.3429,-3.3428,-3.3427,-3.3474,-3.3476,-3.3479,-3.3509,0,0,-3.3487,-3.3488,0,0,0,0,0,0,0,0,-3.3314,-3.332,-3.3377,-3.3379,-3.3381,-3.3418,-3.3404,-3.3451,-3.3429,-3.3411,-3.3428,-3.3427,-3.3456,-3.346,-3.3471,-3.3511,-3.3513,-3.3487,-3.3488,-3.349,-3.349,0,0,0,0,0,0,0,-3.3311,-3.3318,-3.3389,-3.3378,-3.338,-3.338,-3.3386,-3.3413,-3.3437,-3.3412,-3.3413,-3.3419,-3.3457,-3.3469,-3.3472,-3.3514,-3.3487,-3.3489,-3.3491,-3.3492,-3.3581,-3.3582,0,0,0,0,0,0,-3.3306,-3.3315,-3.3387,-3.3391,-3.3345,-3.3383,-3.3389,-3.3407,-3.3436,-3.344,-3.342,-3.342,-3.3465,-3.3469,-3.3474,-3.3512,-3.349,-3.3492,-3.3493,-3.3581,-3.3582,-3.3583,0,0,0,0,0,0,-3.3304,-3.3313,-3.3385,-3.3353,-3.3363,-3.3385,-3.3405,-3.3408,-3.342,-3.3442,-3.3446,-3.3428,-3.3464,-3.3471,-3.3501,-3.3514,-3.3493,-3.3495,-3.358,-3.3581,-3.3582,-3.3588,0,0,0,0,0,0,-3.3301,-3.3312,-3.3325,-3.3354,-3.3364,-3.3413,-3.3405,-3.3409,-3.3425,-3.3425,-3.3451,-3.3454,-3.3464,-3.3497,-3.3503,-3.3517,-3.3497,-3.3578,-3.358,-3.3582,-3.3586,-3.3589,-3.3591,0,0,0,0,0,-3.3298,-3.3322,-3.3325,-3.3334,-3.3381,-3.3413,-3.3419,-3.3432,-3.3426,-3.3438,-3.3453,-3.3454,-3.3511,-3.35,-3.3507,-3.3522,-3.3578,-3.358,-3.3582,-3.3585,-3.3588,-3.3591,0,0,0,0,0,0,-3.3292,-3.3326,-3.333,-3.3365,-3.3387,-3.3415,-3.343,-3.3435,-3.3456,-3.3455,-3.3468,-3.3474,-3.3504,-3.3515,-3.3502,-3.3553,-3.3544,-3.3547,-3.3544,-3.3547,-3.355,-3.3546,-3.35,0,0,0,0,0,-3.3295,-3.332,-3.3348,-3.3377,-3.3388,-3.3407,-3.3422,-3.343,-3.3452,-3.346,-3.3477,-3.3496,-3.3519,-3.3534,-3.3556,-3.3588,-3.3594,-3.3602,-3.3604,-3.3606,-3.3609,-3.3627,-3.3631,-3.3589,-3.3589,-3.3589,0,0,-3.3301,-3.3323,-3.3338,-3.3376,-3.3394,-3.3418,-3.3415,-3.344,-3.3458,-3.3463,-3.3494,-3.3507,-3.3529,-3.3561,-3.3576,-3.3572,-3.3622,-3.3608,-3.3609,-3.3611,-3.363,-3.3634,-3.3637,-3.359,-3.359,-3.359,0,0,-3.3325,-3.3344,-3.3371,-3.3389,-3.3417,-3.343,-3.3436,-3.3464,-3.3474,-3.3505,-3.351,-3.353,-3.3569,-3.3585,-3.3599,-3.363,-3.3632,-3.3637,-3.3649,-3.3668,-3.3671,-3.3674,-3.3686,-3.369,-3.364,-3.364,-3.364,0,-3.3329,-3.3368,-3.3383,-3.341,-3.3427,-3.3435,-3.3461,-3.3477,-3.3509,-3.352,-3.3516,-3.3566,-3.3581,-3.3617,-3.3625,-3.3636,-3.3643,-3.3634,-3.367,-3.3673,-3.3676,-3.3687,-3.3692,-3.364,-3.364,-3.364,-3.364,0,-3.3372,-3.3399,-3.3416,-3.3451,-3.3469,-3.3495,-3.3513,-3.3529,-3.3536,-3.3549,-3.3581,-3.36,-3.3627,-3.3636,-3.3641,-3.3673,-3.367,-3.3667,-3.3659,-3.368,-3.3691,-3.3696,-3.3641,-3.3641,-3.3641,-3.364,0,0,-3.3393,-3.3437,-3.3443,-3.3459,-3.3491,-3.3511,-3.3537,-3.3566,-3.358,-3.3602,-3.3624,-3.3657,-3.3655,-3.367,-3.3678,-3.3694,-3.3719,-3.3689,-3.369,-3.3695,-3.3755,-3.3758,-3.3763,-3.372,-3.3721,-3.3721,-3.3754,0,-3.3421,-3.3471,-3.3486,-3.3527,-3.3552,-3.3561,-3.3583,-3.3604,-3.3618,-3.3639,-3.3653,-3.3677,-3.3672,-3.3682,-3.3698,-3.3712,-3.3731,-3.371,-3.374,-3.3741,-3.3735,-3.3768,-3.3771,-3.38,-3.3758,-3.3759,-3.3759,0,-3.3461,-3.3487,-3.3532,-3.3562,-3.3573,-3.3593,-3.3621,-3.3642,-3.3666,-3.3674,-3.3692,-3.3698,-3.3725,-3.3715,-3.3751,-3.3737,-3.3749,-3.3758,-3.376,-3.3763,-3.3752,-3.3774,-3.381,-3.3815,-3.3766,-3.3766,-3.3765,0,-3.3474,-3.3519,-3.3552,-3.3566,-3.3601,-3.3615,-3.363,-3.3654,-3.367,-3.3693,-3.3704,-3.3729,-3.3743,-3.3762,-3.3775,-3.3766,-3.381,-3.3801,-3.3817,-3.3817,-3.3826,-3.3826,-3.3866,-3.3833,-3.3833,-3.3833,-3.3833,0,-3.3505,-3.3532,-3.3559,-3.3579,-3.3609,-3.3625,-3.3654,-3.3669,-3.369,-3.3712,-3.372,-3.374,-3.3755,-3.3777,-3.3787,-3.3816,-3.3822,-3.3829,-3.3831,-3.3829,-3.3828,-3.3838,-3.3836,-3.3835,-3.3834,-3.3834,-3.3834,0,-3.3524,-3.3543,-3.358,-3.3611,-3.362,-3.3641,-3.3666,-3.3686,-3.3699,-3.3728,-3.3735,-3.3756,-3.3782,-3.3797,-3.3829,-3.3836,-3.3868,-3.3869,-3.3861,-3.3863,-3.3879,-3.3877,-3.3927,-3.3935,-3.3896,-3.3897,-3.3897,0,-3.3543,-3.3564,-3.3599,-3.3616,-3.3632,-3.3658,-3.3676,-3.3692,-3.3709,-3.3739,-3.3754,-3.3782,-3.3805,-3.3846,-3.3863,-3.3888,-3.389,-3.3906,-3.3894,-3.3891,-3.3891,-3.389,-3.3893,-3.3908,-3.3908,-3.3909,-3.3909,0,-3.3574,-3.3583,-3.361,-3.364,-3.3662,-3.3685,-3.3709,-3.3721,-3.3741,-3.376,-3.3789,-3.3807,-3.3841,-3.3868,-3.3895,-3.3908,-3.3912,-3.3913,-3.3918,-3.3916,-3.3911,-3.3915,-3.3868,-3.3912,-3.3911,-3.3911,-3.3911,-3.3911,-3.3595,-3.3615,-3.3643,-3.3672,-3.3692,-3.3714,-3.3734,-3.3752,-3.3777,-3.3808,-3.3815,-3.3845,-3.3868,-3.3905,-3.3919,-3.3942,-3.3939,-3.3946,-3.3948,-3.395,-3.3951,-3.3907,-3.3946,-3.3946,-3.3946,-3.3946,-3.3946,0,-3.3627,-3.3647,-3.3673,-3.3708,-3.3731,-3.3734,-3.376,-3.3779,-3.3806,-3.3828,-3.3852,-3.3885,-3.3911,-3.3931,-3.3957,-3.3972,-3.3974,-3.3978,-3.3978,-3.3981,-3.3952,-3.3945,-3.3976,-3.3976,-3.3976,-3.3976,-3.3976,-3.3976,-3.3647,-3.3682,-3.3695,-3.3739,-3.3757,-3.3789,-3.3803,-3.3823,-3.3842,-3.3879,-3.3902,-3.3916,-3.3937,-3.3965,-3.3989,-3.3994,-3.4004,-3.4008,-3.4013,-3.3986,-3.3983,-3.398,-3.3974,-3.401,-3.401,-3.4041,-3.4041,-3.4041]}]]